Flag for U.S.A. Weather past 2 weeks in Lubbock, Texas, U.S.A.

Now
68 °F

Mostly cloudy.


Feels Like: 68 °F
Forecast: 65 / 70 °F
Wind: 18 mph from Northeast

Location: Lubbock International Airport

Current Time: Jul 7, 2015 at 1:09:43 PM

Latest Report: Jul 7, 2015 at 12:53 PM


Visibility: 10 mi

Pressure: 29.97 "Hg (26.75 "Hg at 976m altitude)

Humidity: 87%

Dew point: 64 °F

Location of LubbockLocation

Historic Weather in Lubbock — Graph

°F

Lubbock temperature yesterday

Maximum temperature yesterday: 95 °F (at 2:53 PM)
Minimum temperature yesterday: 69 °F (at 10:53 PM)
Average temperature yesterday: 79 °F

Past Weeks' High & Low Weather Summary

 TemperatureHumidityPressure
High95 °F (Jul 6, 2:53 PM)100% (Jul 6, 10:53 PM)30.11 "Hg (Jul 6, 10:53 PM)
Low64 °F (Jun 30, 2:53 AM)29% (Jun 29, 3:53 PM)29.72 "Hg (Jul 6, 4:53 PM)
Average79 °F59%29.93 "Hg
* Reported Jun 22 11:53 AM — Jul 7 11:00 AM, Lubbock, Weather by CustomWeather, © 2015

Note: Actual official high and low records may vary slightly from our data, if they occured in-between our weather recording intervals... More about our weather records

Advertising

Lubbock weather history for previous 24 hours

 ConditionsComfort  
Time TempWeatherWind HumidityBarometerVisibility
11:00 AM
Tue, Jul 7
67 °FLight rain. Fog.18 mph97%30.08 "Hg2 mi
10:03 AM69 °FCloudy.15 mph90%30.08 "Hg10 mi
9:53 AM68 °FLight rain. Fog.15 mph93%29.96 "Hg6 mi
8:53 AM68 °FFog.14 mph93%29.94 "Hg5 mi
7:57 AM67 °FHeavy rain. Fog.14 mph97%30.06 "Hg1 mi
7:02 AM68 °FFog.10 mph96%30.04 "Hg3 mi
6:04 AM68 °FLight rain. Fog.12 mph96%30.03 "Hg3 mi
5:53 AM68 °FRain. Fog.9 mph96%29.90 "Hg2 mi
5:04 AM68 °FLight rain. Mostly cloudy.8 mph96%30.03 "Hg10 mi
4:53 AM68 °FLight rain. Mostly cloudy.10 mph96%29.86 "Hg9 mi
3:53 AM68 °FRain. Fog.14 mph96%29.86 "Hg5 mi
2:53 AM68 °FHeavy rain. Fog.15 mph100%29.87 "Hg3 mi
2:04 AM69 °FStrong thunderstorms. Fog.10 mph96%30.05 "Hg2 mi
12:53 AM68 °FStrong thunderstorms. Fog.12 mph96%29.88 "Hg2 mi
11:53 PM
Mon, Jul 6
70 °FThunderstorms. Fog.6 mph97%29.89 "Hg6 mi
10:53 PM69 °FStrong thunderstorms. Fog.16 mph100%29.88 "Hg2 mi
9:53 PM71 °FHeavy rain. Fog.8 mph96%29.86 "Hg5 mi
8:53 PM72 °FPartly sunny.3 mph91%29.83 "Hg10 mi
7:53 PM71 °FPartly sunny.9 mph90%29.83 "Hg10 mi
6:53 PM70 °FThunderstorms. Partly sunny.9 mph90%29.82 "Hg10 mi
5:59 PM70 °FStrong thunderstorms. Fog.32 mph87%29.92 "Hg1 mi
4:53 PM91 °FThunderstorms. Partly sunny.6 mph44%29.72 "Hg10 mi
3:53 PM95 °FThunderstorms. Broken clouds.16 mph37%29.73 "Hg10 mi
2:53 PM95 °FScattered clouds.16 mph37%29.75 "Hg10 mi
1:53 PM94 °FBroken clouds.13 mph38%29.79 "Hg10 mi
Weather by CustomWeather, © 2015

See weather overviewHow to use our weather pages